Weather Roundup
Issued by NWS

Home | Current Version | Previous Version | Graphics & Text | Print | Product List | Glossary Off
Versions: 1 2 3 4 5 6 7 8 9 10 11 12 13 14 15 16 17 18 19 20 21 22 23 24 25 26 27 28 29 30 31 32 33 34 35 36 37 38 39 40 41 42 43 44 45 46 47 48 49 50

350
NZUS93 KARX 051910
HRRWXR

CURRENT HOURLY OBSERVATIONS ACROSS
MUCH OF THE UPPER MISSISSIPPI VALLEY
NATIONAL WEATHER SERVICE LA CROSSE WI
100 PM CST MON DEC 05 2016


...SOUTHEAST MINNESOTA...


CITY           SKY/WX    TMP DP  RH WIND       PRES   REMARKS
ROCHESTER      CLOUDY    34  32  92 S21G28    29.76  WCI  22
ROCHESTER/MAYO CLOUDY    35  34  95 SE13G18   29.77S WCI  26
WINONA         CLOUDY    37  32  81 SE6       29.81F WCI  33
AUSTIN         CLOUDY    34  30  86 S13G18    29.75S WCI  25
ALBERT LEA     MOSUNNY   39  37  93 SE15G23   29.71S WCI  31
DODGE CENTER   CLOUDY    36  30  80 S18G26    29.73S WCI  25
PRESTON        CLOUDY    33  31  93 S16       29.79F WCI  22
OWATONNA       CLOUDY    37  30  75 SE18G28   29.70F WCI  27
FARIBAULT      MOSUNNY   37  34  87 SE12G22   29.70S WCI  30
$$

...ELSEWHERE IN MINNESOTA...


CITY           SKY/WX    TMP DP  RH WIND       PRES   REMARKS
MINNEAPOLIS    LGT RAIN  37  32  82 SE18G28   29.69  WCI  27
INTNL FALLS    CLOUDY    31  24  75 CALM      29.74
DULUTH         MOSUNNY   32  28  85 SE7       29.75  WCI  26
RED WING       CLOUDY    37  34  87 SE9       29.73F WCI  31
REDWOOD FALLS  CLOUDY    38  32  79 SE10      29.57  WCI  31
MANKATO        MOSUNNY   38  32  79 SE23G31   29.63  WCI  27
WORTHINGTON    CLOUDY    42  33  70 S21       29.52
FAIRMONT       PTSUNNY   43  35  73 S22       29.60
$$

...SOUTHWEST WISCONSIN...


CITY           SKY/WX    TMP DP  RH WIND       PRES   REMARKS
LA CROSSE      PTSUNNY   38  33  82 S15       29.84  WCI  29
PRAIRIE DU CHI CLOUDY    35  31  88 SE8       29.89F WCI  28
BOSCOBEL       CLOUDY    36  32  85 VRB3      29.90  FOG
LONE ROCK      CLOUDY    35  31  85 S6        29.91F WCI  30
PLATTEVILLE    CLOUDY    33  33 100 SE12      29.91S WCI  24
FORT MC COY    PTSUNNY   38  34  83 S6        29.85F WCI  34
CAMP DOUGLAS   CLOUDY    36  32  87 SE12      29.85F WCI  27
MAUSTON-NEW LI CLOUDY    35  32  89 SE7       29.86F FOG     WCI  29
VIROQUA        CLOUDY    33  33  98 S3        29.84F
WIS DELLS      CLOUDY    34  32  94 S9        29.89F WCI  26
$$

...ELSEWHERE IN WISCONSIN...


CITY           SKY/WX    TMP DP  RH WIND       PRES   REMARKS
MILWAUKEE      CLOUDY    34  31  88 S10       29.98  FOG     WCI  26
MADISON        CLOUDY    32  31  96 S16       29.93  FOG     WCI  21
GREEN BAY      CLOUDY    36  32  85 S7        29.92  WCI  30
EAU CLAIRE     CLOUDY    35  32  88 S8        29.78  WCI  29
BLACK RVR FLS  CLOUDY    37  36  96 SE7       29.83F FOG     WCI  32
MEDFORD        CLOUDY    31  29  94 SE8       29.82F WCI  23
WAUSAU         CLOUDY    33  30  88 SE7       29.85  WCI  27
WIS RAPIDS     CLOUDY    34  33  96 SE8       29.87F FOG     WCI  27
MARSHFIELD     CLOUDY    32  31  96 SE8       29.82  FOG     WCI  25
RICE LAKE      CLOUDY    31  31  99 SE10      29.79F FOG     WCI  23
$$

...NORTHEAST IOWA...


CITY           SKY/WX    TMP DP  RH WIND       PRES   REMARKS
WATERLOO       CLOUDY    33  32  96 S16G23    29.83  WCI  23
DUBUQUE        SNOW      31  31 100 S17       29.90F VSB 1/4 WCI  19
DECORAH        CLOUDY    34  32  93 S12       29.83S FOG     WCI  25
MASON CITY     MOSUNNY   36  33  89 S18       29.76  WCI  26
CHARLES CITY   CLOUDY    34  34 100 S16G22    29.80F WCI  23
OELWEIN        CLOUDY    32  32 100 S16       29.85F FOG     WCI  21
$$

...ELSEWHERE IN IOWA...


CITY           SKY/WX    TMP DP  RH WIND       PRES   REMARKS
DES MOINES     PTSUNNY   50  36  58 S18       29.79
IOWA CITY      CLOUDY    34  32  92 S12       29.94  WCI  25
FORT DODGE     CLOUDY    41  34  75 S13G23    29.71F
MARSHALLTOWN   CLOUDY    35  34  96 S15       29.81  FOG     WCI  25
CEDAR RAPIDS   CLOUDY    32  32 100 S16       29.88F FOG     WCI  21
$$

...NORTHERN ILLINOIS...


CITY           SKY/WX    TMP DP  RH WIND       PRES   REMARKS
CHICAGO-OHARE  NOT AVBL
CHICAGO-MIDWAY CLOUDY    33  30  88 S9        30.02  WCI  25
MOLINE         CLOUDY    36  32  85 S13G23    29.94  FOG     WCI  27
ROCKFORD       CLOUDY    32  30  92 S15       29.99  FOG     WCI  22
PEORIA         CLOUDY    36  34  92 S13       29.99  WCI  27
$$

NOTE: "FAIR" INDICATES FEW OR NO CLOUDS BELOW 12,000 FEET WITH NO
SIGNIFICANT WEATHER AND/OR OBSTRUCTIONS TO VISIBILITY. WIND
SPEEDS ARE IN MILES-PER-HOUR.




USA.gov is the U.S. government's official web portal to all federal, state and local government web resources and services.